Tampa Macdill AFB, FL

7:08 AM EST on November 18, 2017 (GMT -0500)
MacDill Air Force Base

Weather History for KMCF - August, 2014

Change the Weather History Date:

Saturday, August 16, 2014

  Actual Average Record
Temperature  
Mean Temperature 83 °F -  
Max Temperature 93 °F 88 °F 95 °F (1998)
Min Temperature 75 °F 73 °F 72 °F (2015)
Cooling Degree Days 18    
Growing Degree Days 33 (Base 50)    
Moisture  
Dew Point 78 °F    
Average Humidity 85    
Maximum Humidity 100    
Minimum Humidity 67    
Precipitation  
Precipitation 0.00 in - - ()
Sea Level Pressure  
Sea Level Pressure 30.08 in    
Wind  
Wind Speed 6 mph (WSW)    
Max Wind Speed 12 mph    
Max Gust Speed -    
Visibility 10 miles    
Events Rain , Thunderstorm    
Averages and records for this station are not official NWS values.
T = Trace of Precipitation, MM = Missing Value Source: NWS Daily Summary

Daily Weather History Graph

Daily Weather History Graph

Search for Another Location

Airport or City:

Trip Planner

Search our weather history database for the weather conditions in past years. The results will help you decide how hot, cold, wet, or windy it might be!

Date:

Astronomy

Aug. 16, 2014 Rise Set
Actual Time 7:00 AM EDT 8:07 PM EDT
Civil Twilight 6:36 AM EDT 8:31 PM EDT
Nautical Twilight 6:07 AM EDT 9:00 PM EDT
Astronomical Twilight 5:37 AM EDT 9:30 PM EDT
Moon No Moon Rise 1:08 PM EDT (8/16)
Length of Visible Light 13h 55m
Length of Day
13h 06m
Waning Gibbous, 59% of the Moon is Illuminated
Aug 16
Waning Gibbous
Aug 17
Last Quarter
Aug 25
New
Sep 2
First Quarter
Sep 8
Full

Hourly Weather History & Observations

Time (EDT) Temp. Heat Index Dew Point Humidity Pressure Visibility Wind Dir Wind Speed Gust Speed Precip Events Conditions
12:58 AM 77.2 °F - 75.6 °F 95% 30.04 in 10.0 mi SW 9.2 mph - N/A   Clear
1:58 AM 77.2 °F - 74.5 °F 91% 30.04 in 10.0 mi SSW 6.9 mph - N/A   Clear
2:58 AM 77.9 °F - 76.3 °F 95% 30.03 in 10.0 mi South 4.6 mph - N/A   Scattered Clouds
3:58 AM 78.3 °F - 78.3 °F 100% 30.03 in 10.0 mi South 5.8 mph - N/A   Clear
4:58 AM 78.3 °F - 78.3 °F 100% 30.02 in 10.0 mi SW 4.6 mph - N/A   Clear
5:58 AM 78.4 °F - 78.4 °F 100% 30.03 in 10.0 mi East 2.3 mph - N/A   Clear
6:58 AM 75.7 °F - 75.7 °F 100% 30.04 in 10.0 mi SSE 3.5 mph - N/A   Clear
7:58 AM 79.3 °F - 79.3 °F 100% 30.07 in 10.0 mi Calm Calm - N/A   Clear
8:58 AM 82.6 °F 96.1 °F 81.9 °F 98% 30.08 in 10.0 mi Variable 2.3 mph - N/A   Clear
9:58 AM 88.3 °F 105.4 °F 80.4 °F 77% 30.09 in 10.0 mi WNW 4.6 mph - 0.00 in   Clear
10:58 AM 91.8 °F 109.1 °F 79.3 °F 67% 30.10 in 10.0 mi West 5.8 mph - N/A   Clear
11:51 AM 87.8 °F 102.5 °F 78.8 °F 75% 30.10 in 8.0 mi NW 3.5 mph - N/A Rain Light Rain
11:58 AM 88.0 °F 103.1 °F 79.0 °F 75% 30.10 in 8.0 mi West 4.6 mph - 0.00 in Rain Light Rain
12:02 PM 87.8 °F 102.5 °F 78.8 °F 75% 30.10 in 10.0 mi WSW 8.1 mph - N/A   Scattered Clouds
12:10 PM 86.0 °F 99.3 °F 78.8 °F 79% 30.10 in 10.0 mi West 8.1 mph - N/A Thunderstorm Thunderstorm
12:30 PM 86.0 °F 96.9 °F 77.0 °F 74% 30.10 in 10.0 mi NW 6.9 mph - N/A Thunderstorm Thunderstorm
12:35 PM 86.0 °F 96.9 °F 77.0 °F 74% 30.09 in 10.0 mi NW 5.8 mph - N/A   Scattered Clouds
12:58 PM 86.5 °F 98.3 °F 77.5 °F 74% 30.10 in 10.0 mi West 11.5 mph - 0.00 in   Partly Cloudy
1:49 PM 84.2 °F 94.1 °F 77.0 °F 79% 30.09 in 10.0 mi WNW 5.8 mph - N/A   Light Drizzle
1:50 PM 84.2 °F 94.1 °F 77.0 °F 79% 30.09 in 10.0 mi NW 6.9 mph - N/A   Partly Cloudy
1:58 PM 84.9 °F 95.7 °F 77.5 °F 78% 30.10 in 10.0 mi WNW 5.8 mph - 0.00 in   Partly Cloudy
2:01 PM 86.0 °F 99.3 °F 78.8 °F 79% 30.10 in 10.0 mi West 8.1 mph - N/A   Light Drizzle
2:11 PM 86.0 °F 99.3 °F 78.8 °F 79% 30.11 in 10.0 mi West 8.1 mph - N/A   Partly Cloudy
2:21 PM 86.0 °F 99.3 °F 78.8 °F 79% 30.11 in 10.0 mi West 6.9 mph - N/A   Light Drizzle
2:39 PM 84.2 °F 96.1 °F 78.8 °F 84% 30.10 in 10.0 mi West 5.8 mph - N/A   Partly Cloudy
2:58 PM 85.5 °F 99.6 °F 79.9 °F 83% 30.11 in 10.0 mi WNW 4.6 mph - 0.00 in   Partly Cloudy
3:58 PM 85.3 °F 96.7 °F 77.5 °F 78% 30.09 in 10.0 mi WSW 6.9 mph - N/A   Clear
4:58 PM 84.2 °F 94.9 °F 77.9 °F 81% 30.08 in 10.0 mi West 4.6 mph - N/A   Clear
5:58 PM 86.0 °F 100.8 °F 80.1 °F 82% 30.08 in 10.0 mi West 3.5 mph - N/A   Clear
6:58 PM 86.4 °F 100.4 °F 79.0 °F 79% 30.09 in 10.0 mi SSW 2.3 mph - N/A   Clear
7:58 PM 83.3 °F 93.5 °F 78.1 °F 84% 30.09 in 10.0 mi SSW 4.6 mph - N/A   Clear
8:58 PM 80.6 °F 86.6 °F 76.1 °F 86% 30.09 in 10.0 mi ENE 2.3 mph - N/A   Clear
9:58 PM 77.9 °F - 75.2 °F 91% 30.10 in 10.0 mi West 3.5 mph - N/A   Clear
10:58 PM 79.7 °F - 77.7 °F 94% 30.11 in 10.0 mi SW 3.5 mph - N/A   Clear
11:58 PM 76.5 °F - 74.7 °F 94% 30.11 in 10.0 mi East 2.3 mph - N/A   Clear